Belen, NM

7:37 AM MST on November 18, 2017 (GMT -0700)
Belen

Weather History for KE80 - January, 2013

Change the Weather History Date:

Sunday, January 6, 2013

  Actual Average (KABQ) Record (KABQ)
Temperature  
Mean Temperature 26 °F -  
Max Temperature 44 °F 44 °F 72 °F (1909)
Min Temperature 8 °F 22 °F -12 °F (1971)
Degree Days  
Heating Degree Days 39    
Moisture  
Dew Point 5 °F    
Average Humidity 44    
Maximum Humidity 67    
Minimum Humidity 23    
Precipitation  
Precipitation 0.00 in - - ()
Sea Level Pressure  
Sea Level Pressure 30.29 in    
Wind  
Wind Speed 5 mph (NNW)    
Max Wind Speed 12 mph    
Max Gust Speed -    
Visibility 10 miles    
Events      
Averages and records for this station are not official NWS values.
T = Trace of Precipitation, MM = Missing Value Source: NWS Daily Summary

Daily Weather History Graph

Daily Weather History Graph

Search for Another Location

Airport or City:

Trip Planner

Search our weather history database for the weather conditions in past years. The results will help you decide how hot, cold, wet, or windy it might be!

Date:

Astronomy

Jan. 06, 2013 Rise Set
Actual Time 7:15 AM MST 5:11 PM MST
Civil Twilight 6:47 AM MST 5:39 PM MST
Nautical Twilight 6:15 AM MST 6:10 PM MST
Astronomical Twilight 5:45 AM MST 6:41 PM MST
Moon 1:38 AM MST (1/6) 12:36 PM MST (1/6)
Length of Visible Light 10h 52m
Length of Day
9h 56m
Waning Crescent, 32% of the Moon is Illuminated
Jan 6
Waning Crescent
Jan 11
New
Jan 18
First Quarter
Jan 26
Full
Feb 3
Last Quarter

Hourly Weather History & Observations

Time (MST) Temp. Windchill Dew Point Humidity Pressure Visibility Wind Dir Wind Speed Gust Speed Precip Events Conditions
12:15 AM 18.3 °F - 2.7 °F 51% 30.37 in 10.0 mi Calm Calm - N/A   Clear
12:35 AM 20.1 °F 13.6 °F 3.6 °F 49% 30.37 in 10.0 mi NW 4.6 mph - N/A   Clear
12:55 AM 17.6 °F 9.3 °F 3.0 °F 53% 30.37 in 10.0 mi NW 5.8 mph - N/A   Clear
1:15 AM 17.6 °F 7.3 °F 3.2 °F 53% 30.37 in 10.0 mi NW 8.1 mph - N/A   Clear
1:35 AM 17.6 °F 8.2 °F 3.6 °F 54% 30.38 in 10.0 mi NW 6.9 mph - N/A   Clear
1:55 AM 16.9 °F 6.4 °F 3.7 °F 56% 30.37 in 10.0 mi NW 8.1 mph - N/A   Clear
2:15 AM 16.3 °F 5.7 °F 3.4 °F 57% 30.37 in 10.0 mi NW 8.1 mph - N/A   Clear
2:35 AM 14.5 °F 3.6 °F 2.7 °F 59% 30.37 in 10.0 mi NNW 8.1 mph - N/A   Clear
2:55 AM 12.9 °F 1.6 °F 1.8 °F 61% 30.37 in 10.0 mi NW 8.1 mph - N/A   Clear
3:15 AM 13.6 °F 3.5 °F 1.9 °F 60% 30.37 in 10.0 mi NW 6.9 mph - N/A   Clear
3:35 AM 12.9 °F 1.6 °F 2.1 °F 62% 30.37 in 10.0 mi NW 8.1 mph - N/A   Clear
3:55 AM 12.6 °F 3.4 °F 1.2 °F 61% 30.37 in 10.0 mi NW 5.8 mph - N/A   Clear
4:15 AM 11.8 °F 3.9 °F 1.4 °F 63% 30.36 in 10.0 mi NNW 4.6 mph - N/A   Clear
4:35 AM 13.5 °F 5.8 °F 2.1 °F 61% 30.36 in 10.0 mi NNW 4.6 mph - N/A   Clear
4:55 AM 12.6 °F 6.5 °F 0.7 °F 59% 30.36 in 10.0 mi NW 3.5 mph - N/A   Clear
5:15 AM 10.8 °F - 0.7 °F 64% 30.36 in 10.0 mi Calm Calm - N/A   Clear
5:35 AM 9.5 °F -0.3 °F 0.1 °F 66% 30.36 in 10.0 mi WNW 5.8 mph - N/A   Clear
5:55 AM 9.7 °F -1.3 °F -0.0 °F 65% 30.37 in 10.0 mi NW 6.9 mph - N/A   Clear
6:15 AM 8.6 °F -1.3 °F -0.2 °F 67% 30.37 in 10.0 mi NW 5.8 mph - N/A   Clear
6:35 AM 10.2 °F 0.6 °F 1.2 °F 67% 30.38 in 10.0 mi North 5.8 mph - N/A   Clear
6:55 AM 9.0 °F 2.4 °F -0.4 °F 66% 30.39 in 10.0 mi North 3.5 mph - N/A   Clear
7:15 AM 8.2 °F -1.8 °F -0.8 °F 67% 30.39 in 10.0 mi WNW 5.8 mph - N/A   Clear
7:35 AM 8.2 °F -3.0 °F -0.6 °F 67% 30.39 in 10.0 mi NW 6.9 mph - N/A   Clear
7:55 AM 12.2 °F 2.9 °F 1.0 °F 61% 30.39 in 10.0 mi NW 5.8 mph - N/A   Clear
8:15 AM 14.9 °F 7.5 °F 2.1 °F 57% 30.39 in 10.0 mi NW 4.6 mph - N/A   Clear
8:35 AM 18.3 °F 13.1 °F 3.2 °F 52% 30.39 in 10.0 mi NW 3.5 mph - N/A   Clear
8:55 AM 19.9 °F 12.1 °F 3.7 °F 50% 30.39 in 10.0 mi NW 5.8 mph - N/A   Clear
9:15 AM 21.0 °F 14.6 °F 3.9 °F 48% 30.40 in 10.0 mi NW 4.6 mph - N/A   Clear
9:35 AM 23.5 °F 19.1 °F 5.4 °F 46% 30.39 in 10.0 mi NNW 3.5 mph - N/A   Clear
9:55 AM 25.5 °F - 6.4 °F 44% 30.40 in 10.0 mi Calm Calm - N/A   Clear
10:15 AM 26.4 °F 22.4 °F 6.4 °F 43% 30.39 in 10.0 mi East 3.5 mph - N/A   Clear
10:35 AM 27.1 °F 23.2 °F 6.6 °F 42% 30.39 in 10.0 mi NNE 3.5 mph - N/A   Clear
10:55 AM 29.3 °F - 6.6 °F 38% 30.37 in 10.0 mi Calm Calm - N/A   Clear
11:15 AM 32.0 °F 28.7 °F 7.3 °F 36% 30.36 in 10.0 mi North 3.5 mph - N/A   Clear
11:35 AM 33.3 °F 30.2 °F 7.2 °F 34% 30.34 in 10.0 mi NNW 3.5 mph - N/A   Clear
11:55 AM 34.0 °F - 7.7 °F 33% 30.32 in 10.0 mi Calm Calm - N/A   Clear
12:15 PM 36.1 °F - 8.1 °F 31% 30.30 in 10.0 mi Calm Calm - N/A   Clear
12:35 PM 37.4 °F 34.9 °F 8.2 °F 30% 30.29 in 10.0 mi NNE 3.5 mph - N/A   Clear
12:55 PM 37.6 °F - 8.2 °F 30% 30.27 in 10.0 mi Calm Calm - N/A   Clear
1:15 PM 38.3 °F 35.9 °F 8.2 °F 29% 30.26 in 10.0 mi NE 3.5 mph - N/A   Clear
1:35 PM - - - N/A% 30.25 in 10.0 mi Calm Calm - N/A   Clear
1:55 PM 39.2 °F 37.0 °F 8.2 °F 28% 30.24 in 10.0 mi ESE 3.5 mph - N/A   Clear
2:15 PM 40.6 °F 36.0 °F 8.1 °F 26% 30.23 in 10.0 mi South 6.9 mph - N/A   Clear
2:35 PM 42.6 °F 36.8 °F 7.7 °F 24% 30.22 in 10.0 mi SSE 10.4 mph - N/A   Clear
2:55 PM 42.1 °F 36.1 °F 7.5 °F 24% 30.21 in 10.0 mi South 10.4 mph - N/A   Clear
3:15 PM 42.8 °F 37.5 °F 7.7 °F 24% 30.21 in 10.0 mi South 9.2 mph - N/A   Clear
3:35 PM 42.8 °F 36.6 °F 7.7 °F 24% 30.20 in 10.0 mi South 11.5 mph - N/A   Clear
3:55 PM 44.2 °F 39.2 °F 8.1 °F 23% 30.19 in 10.0 mi South 9.2 mph - N/A   Clear
4:15 PM 43.0 °F 38.8 °F 7.9 °F 24% 30.19 in 10.0 mi South 6.9 mph - N/A   Clear
4:35 PM 40.6 °F 37.5 °F 7.7 °F 26% 30.19 in 10.0 mi South 4.6 mph - N/A   Clear
4:55 PM 37.6 °F 35.1 °F 6.6 °F 28% 30.19 in 10.0 mi WSW 3.5 mph - N/A   Clear
5:15 PM 36.1 °F - 6.6 °F 29% 30.19 in 10.0 mi Calm Calm - N/A   Clear
5:35 PM 34.7 °F 31.8 °F 5.9 °F 30% 30.19 in 10.0 mi SW 3.5 mph - N/A   Clear
5:55 PM 34.7 °F - 6.1 °F 30% 30.18 in 10.0 mi Calm Calm - N/A   Clear
6:15 PM 32.4 °F - 4.8 °F 31% 30.17 in 10.0 mi Calm Calm - N/A   Clear
6:35 PM 33.3 °F 27.9 °F 6.4 °F 32% 30.17 in 10.0 mi ENE 5.8 mph - N/A   Clear
6:55 PM 33.4 °F 27.3 °F 6.8 °F 33% 30.17 in 10.0 mi ENE 6.9 mph - N/A   Clear
7:15 PM 31.3 °F 23.9 °F 5.5 °F 34% 30.17 in 10.0 mi NE 8.1 mph - N/A   Clear
7:35 PM 30.9 °F 25.2 °F 5.9 °F 35% 30.17 in 10.0 mi ENE 5.8 mph - N/A   Clear
7:55 PM 30.7 °F 24.9 °F 6.1 °F 35% 30.16 in 10.0 mi ENE 5.8 mph - N/A   Clear
8:15 PM 32.2 °F 26.7 °F 7.2 °F 35% 30.16 in 10.0 mi ENE 5.8 mph - N/A   Clear
8:35 PM 29.7 °F 24.7 °F 5.9 °F 37% 30.15 in 10.0 mi ENE 4.6 mph - N/A   Clear
9:35 PM 30.7 °F - 6.4 °F 36% 30.14 in 10.0 mi Calm Calm - N/A   Clear
9:55 PM 29.5 °F 25.9 °F 5.9 °F 37% 30.14 in 10.0 mi NW 3.5 mph - N/A   Clear
10:35 PM 29.8 °F - 6.1 °F 37% 30.14 in 10.0 mi Calm Calm - N/A   Clear
10:55 PM 32.4 °F - 8.2 °F 36% 30.13 in 10.0 mi Calm Calm - N/A   Clear
11:15 PM 31.8 °F - 8.2 °F 37% 30.13 in 10.0 mi Calm Calm - N/A   Clear
11:35 PM 31.6 °F 27.0 °F 8.2 °F 38% 30.12 in 10.0 mi ESE 4.6 mph - N/A   Clear
11:55 PM 31.6 °F - 8.4 °F 38% 30.12 in 10.0 mi Calm Calm - N/A   Scattered Clouds